User: anonymous   Login
Location: ??
(34.9170°N, 135.5016°E)
Time: 21:08:12
(UTC+00:00)
Language:

Cosmos 1606 Rocket - Orbit

View from above orbital plane
View from above orbital plane
View from above satellite
View from above satellite

Ground track
Ground track

The orbit data is extracted from the following two-line orbital elements,

1 15370U 84111B   21016.56769218  .00000080  00000-0  66594-5 0  9998
2 15370  82.5150 219.9000 0022181  58.3747 301.9628 14.83741493937224
Epoch (UTC): 16 January 2021 13:37:28
Eccentricity: 0.0022181
inclination: 82.5150°
perigee height: 602 km
apogee height: 633 km
right ascension of ascending node: 219.9000°
argument of perigee: 58.3747°
revolutions per day: 14.83741493
mean anomaly at epoch: 301.9628°
orbit number at epoch: 93722

The dashed part of the orbit path shows where the satellite is in the earth's shadow,  

DLR